Home   Weather   Rennes   Past weeks

Flag for France Past Weather in Rennes, Brittany, France — Yesterday and Last 2 Weeks

Now
73 °F

Mild.


Feels Like: 76 °F
Forecast: 57 / 73 °F
Wind: 9 mph from Southwest

Location: Rennes Airport

Current Time: Sep 28, 2016 at 5:26:59 PM

Latest Report: Sep 28, 2016 at 5:00 PM


Visibility: N/A

Pressure: 30.33 "Hg

Humidity: 61%

Dew Point: 59 °F

Location of RennesLocation

Past Weather in Rennes — Graph

°F

Rennes Temperature Yesterday

Maximum temperature yesterday: 68 °F (at 5:00 PM)
Minimum temperature yesterday: 61 °F (at 12:00 AM)
Average temperature yesterday: 64 °F

High & Low Weather Summary for the Past Weeks

 TemperatureHumidityPressure
High84 °F (Sep 13, 5:00 PM)100% (Sep 14, 2:30 AM)30.42 "Hg (Sep 14, 2:30 AM)
Low48 °F (Sep 24, 6:00 AM)38% (Sep 25, 2:00 PM)29.65 "Hg (Sep 13, 7:00 PM)
Average62 °F78%30.09 "Hg
* Reported Sep 13 4:00 PM — Sep 28 4:00 PM, Rennes, Weather by CustomWeather, © 2016

Note: Actual official high and low records may vary slightly from our data, if they occured in-between our weather recording intervals... More about our weather records

Advertising

Rennes Weather History for the Previous 24 Hours

Scroll right to see more
 ConditionsComfort  
Time TempWeatherWind HumidityBarometerVisibility
4:00 PM
Wed, Sep 28
73 °FMild.10 mph57%30.36 "HgN/A
3:30 PM73 °FMild.7 mph57%30.36 "HgN/A
3:00 PM73 °FMild.8 mph57%30.36 "HgN/A
2:30 PM73 °FMild.9 mph57%30.36 "HgN/A
2:00 PM73 °FMild.8 mph57%30.39 "HgN/A
1:30 PM72 °FPassing clouds.9 mph57%30.39 "HgN/A
1:00 PM70 °FScattered clouds.8 mph64%30.39 "HgN/A
12:30 PM70 °FPartly sunny.7 mph69%30.39 "HgN/A
12:00 PM68 °FPassing clouds.5 mph73%30.39 "HgN/A
11:30 AM66 °FBroken clouds.3 mph78%30.42 "HgN/A
11:00 AM64 °FBroken clouds.1 mph83%30.42 "HgN/A
10:30 AM61 °FLow clouds.2 mph94%30.42 "HgN/A
10:00 AM61 °FLow clouds.2 mph94%30.39 "HgN/A
9:30 AM61 °FMostly cloudy.2 mph94%30.39 "HgN/A
9:00 AM59 °FMore clouds than sun.3 mph100%30.39 "HgN/A
8:30 AM59 °FLow clouds.3 mph100%30.39 "HgN/A
8:00 AM59 °FMostly cloudy.6 mph100%30.39 "Hg5 mi
7:30 AM61 °FOvercast.No wind94%30.39 "HgN/A
7:00 AM61 °FOvercast.No wind94%30.36 "HgN/A
6:30 AM61 °FMostly cloudy.No wind94%30.39 "HgN/A
6:00 AM61 °FMostly cloudy.2 mph94%30.39 "HgN/A
5:30 AM61 °FMostly cloudy.5 mph94%30.36 "HgN/A
5:00 AM61 °FLow clouds.5 mph94%30.36 "HgN/A
4:30 AM61 °FMostly cloudy.3 mph94%30.36 "HgN/A
4:00 AM61 °FOvercast.5 mph94%30.36 "HgN/A
3:30 AM63 °FMostly cloudy.5 mph94%30.36 "HgN/A
3:00 AM63 °FMostly cloudy.3 mph94%30.36 "HgN/A
2:00 AM63 °FLow clouds.2 mph100%30.36 "HgN/A
1:30 AM64 °FMostly cloudy.2 mph94%30.36 "HgN/A
1:00 AM63 °FMostly cloudy.1 mph100%30.36 "HgN/A
12:30 AM64 °FMostly cloudy.1 mph94%30.36 "HgN/A
12:00 AM64 °FOvercast.No wind88%30.36 "Hg5 mi
11:30 PM
Tue, Sep 27
64 °FOvercast.No wind94%30.36 "HgN/A
11:00 PM64 °FOvercast.3 mph94%30.33 "HgN/A
10:30 PM64 °FOvercast.5 mph94%30.33 "HgN/A
10:00 PM66 °FMostly cloudy.6 mph88%30.33 "HgN/A
9:30 PM66 °FMostly cloudy.5 mph83%30.33 "HgN/A
9:00 PM66 °FOvercast.3 mph83%30.33 "HgN/A
8:30 PM66 °FOvercast.5 mph83%30.30 "HgN/A
8:00 PM68 °FOvercast.5 mph78%30.30 "HgN/A
7:30 PM68 °FMostly cloudy.6 mph78%30.30 "HgN/A
7:00 PM68 °FBroken clouds.5 mph78%30.30 "HgN/A
6:30 PM68 °FMostly cloudy.3 mph83%30.30 "HgN/A
6:00 PM68 °FMostly cloudy.3 mph83%30.27 "HgN/A
5:30 PM68 °FMostly cloudy.6 mph83%30.27 "HgN/A
5:00 PM68 °FMostly cloudy.5 mph83%30.27 "HgN/A
Weather by CustomWeather, © 2016

See weather overviewHow to use our weather pages